This is the latest recevied weather packets stored in our database for station/object N7CW. If no packets are shown the sender has not sent any weather packets the latest 10 day(s).
| Time | Temp. | Humidity | Pressure | Rain* | Wind** | Luminosity | Snow |
|---|---|---|---|---|---|---|---|
| 1777940949 | 14.44° C | 37% | 1014.1 hPa | 0 mm | - | 123 W/m² | - |
| 1777940645 | 15° C | 35% | 1014.1 hPa | 0 mm | - | 173 W/m² | - |
| 1777940344 | 15° C | 35% | 1014 hPa | 0 mm | - | 210 W/m² | - |
| 1777940041 | 15° C | 34% | 1014.5 hPa | 0 mm | - | 272 W/m² | - |
| 1777939738 | 15° C | 33% | 1013.9 hPa | 0 mm | - | 204 W/m² | - |
| 1777939436 | 14.44° C | 34% | 1014 hPa | 0 mm | - | 261 W/m² | - |
| 1777939132 | 14.44° C | 33% | 1014 hPa | 0 mm | - | 133 W/m² | - |
| 1777938830 | 14.44° C | 34% | 1014 hPa | 0 mm | - | 132 W/m² | - |
| 1777938526 | 15° C | 34% | 1013.9 hPa | 0 mm | - | 220 W/m² | - |
| 1777938224 | 15° C | 33% | 1013.6 hPa | 0 mm | - | 196 W/m² | - |
| 1777937920 | 15° C | 33% | 1014 hPa | 0 mm | - | 189 W/m² | - |
| 1777937615 | 15.56° C | 31% | 1013.9 hPa | 0 mm | - | 244 W/m² | - |
| 1777937313 | 15° C | 31% | 1013.6 hPa | 0 mm | - | 392 W/m² | - |
| 1777937010 | 15° C | 33% | 1014.1 hPa | 0 mm | - | 389 W/m² | - |
| 1777936706 | 15° C | 33% | 1014 hPa | 0 mm | - | 356 W/m² | - |
| 1777936403 | 15.56° C | 34% | 1014.1 hPa | 0 mm | - | 313 W/m² | - |
| 1777936100 | 15.56° C | 34% | 1013.9 hPa | 0 mm | - | 283 W/m² | - |
| 1777935797 | 15° C | 35% | 1013.9 hPa | 0 mm | - | 397 W/m² | - |
| 1777935496 | 15.56° C | 34% | 1014.1 hPa | 0 mm | - | 434 W/m² | - |
| 1777935192 | 15° C | 33% | 1014.2 hPa | 0 mm | - | 315 W/m² | - |
| 1777934889 | 15° C | 33% | 1014.2 hPa | 0 mm | - | 343 W/m² | - |
| 1777934586 | 15.56° C | 31% | 1014.4 hPa | 0 mm | - | 394 W/m² | - |
| 1777934282 | 15.56° C | 33% | 1014.1 hPa | 0 mm | - | 362 W/m² | - |
| 1777933978 | 15.56° C | 33% | 1014.2 hPa | 0 mm | - | 364 W/m² | - |
| 1777933675 | 15.56° C | 31% | 1014.4 hPa | 0 mm | - | 453 W/m² | - |
* Rain latest hour (hover to see other rain measurements)
** Current wind speed in m/s (hover to see current wind gust speed)